Location: *
(50.6089°N, 2.2719°E)
Time: 09:23:29
(UTC+00:00)

STARLINK-57 - Pass Details

Date: 18 October 2019
Orbit: 548 x 551 km, 53.0° (Epoch: 11 November)

Event Time Altitude Azimuth Distance (km) Brightness Sun altitude
Rises 17:40:50 0° 250° (WSW) 2,711 9.0 -8.2°
Reaches altitude 10° 17:43:04 10° 251° (WSW) 1,820 7.8 -8.6°
Maximum altitude 17:47:12 87° 337° (NNW) 555 3.6 -9.2°
Enters shadow 17:50:57 13° 71° (ENE) 1,661 5.4 -9.8°
